Regional Weather Roundup
Issued by NWS New Orleans/Baton Rouge, LA

Home | Current Version | Previous Version | Text Only | Print | Product List | Glossary On
Versions: 1 2 3 4 5 6 7 8 9 10 11 12 13 14 15 16 17 18 19 20 21 22 23 24 25 26 27 28 29 30 31 32 33 34 35 36 37 38 39 40 41 42 43 44 45 46 47 48 49 50
480
ASUS44 KLIX 230613
RWRLIX
NEW ORLEANS REGIONAL WEATHER ROUNDUP
NATIONAL WEATHER SERVICE NEW ORLEANS LA
1200 AM CST TUE JAN 23 2018

NOTE: "FAIR" INDICATES FEW OR NO CLOUDS BELOW 12,000 FEET WITH NO
      SIGNIFICANT WEATHER AND/OR OBSTRUCTIONS TO VISIBILITY.
      SKY/WX - SKY CONDITION AND SIGNIFICANT WEATHER.
      TMP - AIR TEMPERATURE.     DP    - DEWPOINT TEMPERATURE.
      RH  - RELATIVE HUMIDITY.   PRES  - PRESSURE.
      HI  - HEAT INDEX.          WCI   - WIND CHILL INDEX.

*  THESE STATIONS ARE NOT NWS OR FAA STATIONS AND ARE NOT UNDER
   NWS QUALITY CONTROL.

LAZ038-040-048-061>063-065>067-069-230700-
SOUTHEAST LOUISIANA

CITY           SKY/WX    TMP DP  RH WIND       PRES   REMARKS
N.O. INTL ARPT MOCLDY    55  36  48 NW13      30.07S
6HR MIN TEMP:  55; 6HR MAX TEMP:  65;

N.O. LAKEFRONT FAIR      49  42  77 W9        30.07S
6HR MIN TEMP:  49; 6HR MAX TEMP:  61;

N.O. DOWNTOWN* FAIR      58  29  33 NW8       30.08R
6HR MIN TEMP:  58; 6HR MAX TEMP:  69;

RESERVE*       FAIR      57  27  32 NW7       30.09S
6HR MIN TEMP:  56; 6HR MAX TEMP:  65;

SLIDELL        FAIR      54  28  36 NW3       30.06R
6HR MIN TEMP:  53; 6HR MAX TEMP:  64;

BATON ROUGE    FAIR      51  29  42 W6        30.09S
6HR MIN TEMP:  50; 6HR MAX TEMP:  63;

BOOTHVILLE     FAIR      57  48  72 NW12      30.05R
6HR MIN TEMP:  57; 6HR MAX TEMP:  65;

BELLE CHASSE   NOT AVBL
BOGALUSA*      FAIR      53  31  42 NW8       30.07S
6HR MIN TEMP:  53; 6HR MAX TEMP:  62;

GALLIANO*      FAIR      55  34  46 NW10G18   30.07S
6HR MIN TEMP:  53; 6HR MAX TEMP:  65;

NEW ROADS*     FAIR      49  34  56 W7        30.11R
6HR MIN TEMP:  48; 6HR MAX TEMP:  57;

GONZALES*      FAIR      52  31  45 NW3       30.09S
6HR MIN TEMP:  51; 6HR MAX TEMP:  61;

HAMMOND*       FAIR      50  34  53 N8        30.08S
HOUMA*         FAIR      56  34  44 NW9       30.09R
6HR MIN TEMP:  55; 6HR MAX TEMP:  67;

PORT FOURCHON* CLEAR     57  45  62 NW10      30.07S

$$

MSZ070-080>082-230700-
SOUTHERN MISSISSIPPI

CITY           SKY/WX    TMP DP  RH WIND       PRES   REMARKS
MCCOMB         FAIR      49  28  44 NW7       30.07R
6HR MIN TEMP:  49; 6HR MAX TEMP:  63;

GULFPORT       FAIR      57  32  38 NW15G24   30.03R
6HR MIN TEMP:  56; 6HR MAX TEMP:  62;

BILOXI         FAIR      56  37  49 NW5       30.02R
6HR MIN TEMP:  54; 6HR MAX TEMP:  58;

PASCAGOULA     FAIR      55  43  63 NW6       30.02R
6HR MIN TEMP:  54; 6HR MAX TEMP:  62;


$$

COASTAL OBSERVATIONS
LAKE AND NEARSHORE STATIONS

STATION/POSITION TIME  SKY/WX   TEMP    WIND        PRES    WAVE
                                AIR SEA DIR/SP/G            HT/PER
                 (UTC)          (F)     (DEG/KT/KT) (MB)    (FT/S)
PASCAGOULA       0548            56     330/  9/ 13 1015.7
WAVELAND YACHT   0548            56 53  320/  9/ 11 1017.0
GRAND ISLE       0548            59 59  330/ 14/ 18 1017.8
SOUTHWEST PASS   0548            60 52  320/ 22/ 25 1017.5
NEW CANAL        0548            51 49  280/  4/  9 1018.0
SHELL BEACH      0548            53 53  290/ 11/ 13 1017.6

OFFSHORE STATIONS

STATION/POSITION TIME  SKY/WX   TEMP    WIND        PRES    WAVE
                                AIR SEA DIR/SP/G            HT/PER
                 (UTC)          (F)     (DEG/KT/KT) (MB)    (FT/S)
64 S DAUPHIN ISL 0550            66 68  280/ 10/ 14 1016.2    4/ 8

$$





USA.gov is the U.S. government's official web portal to all federal, state and local government web resources and services.